Powrót do katalogu

FLOCK 4H 13

AktywnyNaukaSSO
NORAD 66716·PAYLOAD·🇺🇸 United States

Wystrzelony Nov 28, 2025 z Vandenberg Space Force Base

Loading…

Następne Przeloty (najbliższe 24 godziny)

TLE

ŚwieżeSource: CelesTrak SupGP

Epoka: Sep 14, 2026, 22:45 UTC

1 66716C 25276BC  26257.94797454  .00001293  00000+0  57543-4 0  2578
2 66716  97.4147 330.4552 0001539  56.5295 239.5533 15.21550205    19

Śledź FLOCK 4H 13 w czasie rzeczywistym z AllMySat

Download on the App Store